SL-12 R/B(AUX MOTOR)

基本信息
目录编号:
36115
目录名称:
SL-12 R/B(AUX MOTOR)
国际标识:
2009-070E
轨道中心:
EARTH
物体状态:
在轨
发射日期:
2009-12-14 UTC
国别:
俄罗斯(独联体) (CIS)
轨道信息
数据来源: 国际轨道数据
星历时间: 2026-07-10T16:57:05+0800
半长轴: 16054.008km
偏心率: 0.5588248
轨道倾角: 65.261°
近地点辐角: 265.984°
升交点赤经: 239.011°
平近点角: 31.954°
近地点: 704.493km
远地点: 18647.249km
周期: 337.392分钟
每日圈数: 4.268031
详细信息
发射场:
TTMTR
轨道高度:
LEO
数据来源:
AOE Integration Group
参考系:
TEME
时间系统:
UTC
历元类型:
SGP4
2D轨道图
3D轨道图
轨道高度分析图
轨道倾角分析图
轨道综合分析图
查看轨道综合分析图